Showing default

COSMOS 1803, 17177

Orbit data source: Space-Track

COSMOS 1803, 17177 is a payload satellite owned by VTS SA (CIS) in LEO that was launched on Tue, 02 Dec 1986 UTC via a TSIKLON-3 launch vehicle from the Plesetsk Missile And Space Complex (PKMTR). Payloads include a variety of satellites, spacecraft, and rockets equipped with specific instruments for various scientific and technological missions. These include communications satellites like Starlink; space stations such as the ISS; scientific satellites like the Hubble; Earth observation satellites from companies like Planet Labs, Umbra, and HawkEye 360; GPS; miniature CubeSats for education and research; and military/defense satellites.

Loading next visibility...
COSMOS 1803 details
Identifier
17177, 1986-094A
Orbit
LEO
Last TLE update14 hours ago
Origin
Flag of CISVTS SA (CIS)
ManufacturerNPO PM
MissionDefense Geodetic
Bus & MotorKAUR-1 11F666, Unknown motor
Mass1,552 kg wet, 1,552 kg dry
Launch date (UTC)
1986-12-02 (38 years ago)
Launch vehicle
TSIKLON-3
Launch site
Plesetsk Missile And Space Complex (PKMTR)
Object type
Payload
Rocket body
Debris
Shape & HBRCyl, 5.8 m
Radar Cross Section13.195 m², Large (>1 m²)

Expand to show TLE details & history

TLE from 14 hours ago
0 COSMOS 1803
1 17177U 86094A   24361.19085875  .00000041  00000-0  23104-3 0  9997
2 17177  82.6069 339.6713 0003550 157.7702 213.4698 12.41549254725194
Epoch: 2024-12-26T04:34Z
Definitive object data (Epoch: 2024-12-26T04:34:50.196Z)
Latitude11.07849°
Longitude177.23706°
Altitude1,504.329 km
Speed7.112 km/s
True Right ascension22h 44m 28s
True Declination11° 01' 12"
Sunlit
Object was in daylight at TLE epoch
Visualization TLE readout
Latitude11.04349°
Longitude-6.0221°
Altitude1,499.263 km
Speed7.117 km/s
Apparent Right ascension08h 57m 07s
Apparent Declination-13° 17' 02"
Sunlit
Object is in daylight
Visualization observer readout
Local Sidereal Time18:20:29
Azimuth296.621° NW
Elevation-46.574°
Doppler factor1
Orbital elements
Apogee altitude1,500.188 km
Perigee altitude1,494.596 km
Semi-major axis7,875.529 km
Eccentricity0.000355
Inclination82.6069°
RAAN339.6713°
Arg. of periapsis157.7702°
True anomaly213.44737°
Mean anomaly213.4698°
Eccentric anomaly213.45859°
Mean motion3.10544 °/min
BSTAR0.00023104
Orbital period115.93 mins
Loading maneuver chart data...
Loading historical data...
Loading historical data...
Loading historical data...
Loading historical data...
Loading historical data...
Loading historical data...
Loading historical data...
Other satellites on launch #94 in the year 1986 (1986-12-02 UTC)

COSMOS 1803 Visibility forecast

Observer location: undefined°, undefined

Span
Click to sort rows by Start time (UTC) header in descending order
Start Az.
Max El. time (UTC)
Max El. Az.
Max El.
End time (UTC)
End Az.
12 mins2024-12-26 22:02:54.712Z128.455° SE2024-12-26 22:08:54.712Z79.362° E23.806°2024-12-26 22:14:54.712Z32.719° NE
15 mins2024-12-26 23:57:54.712Z202.143° SSW2024-12-27 00:04:54.712Z281.994° WNW42.155°2024-12-27 00:12:54.712Z1.187° NNE
4 mins2024-12-27 02:01:54.712Z289.917° WNW2024-12-27 02:03:54.712Z303.906° NW11.603°2024-12-27 02:05:54.712Z317.795° NNW
15 mins2024-12-27 10:09:54.712Z2.234° NNE2024-12-27 10:16:54.712Z89.559° E41.555°2024-12-27 10:24:54.712Z158.988° S
11 mins2024-12-27 12:07:54.712Z320.637° NNW2024-12-27 12:12:54.712Z276.886° WNW24.473°2024-12-27 12:18:54.712Z228.807° WSW
|